Lid_Strength_Index
1 2 2 3 7 7 10 9 6 7 7 5 4 5 6 5 7 10 1 -0 -0 -0 -1 -1 -1 -1 -2 -2 -2 -2 -2 -2 -2 -2 -2 -2 -2 -2 -2 -2 -2 -2 -2 -2 -2 -2 -2 -2 -2
2 3 2 4 8 10 10 8 8 6 5 4 5 5 6 7 4 3 2 -0 -1 -1 -1 -1 -1 -1 -1 -2 -2 -2 -2 -2 -2 -2 -2 -2 -2 -2 -2 -2 -2 -2 -2 -2 -2 -2 -2 -2 -2
2 3 5 6 8 10 10 8 7 6 5 5 5 4 5 6 3 2 0 -0 -1 -1 -1 -1 -1 -1 -1 -2 -2 -2 -2 -2 -2 -2 -2 -2 -2 -2 -2 -2 -2 -2 -2 -2 -2 -2 -2 -2 -2
2 3 4 8 10 8 8 7 6 6 5 4 5 6 4 2 3 1 -0 -1 -0 -1 -0 -1 -1 -1 -1 -2 -2 -2 -2 -2 -2 -2 -2 -2 -2 -2 -2 -2 -2 -2 -2 -2 -2 -2 -2 -2 -2
1 4 8 9 9 7 7 6 5 6 6 5 5 6 5 2 1 0 0 -0 -0 -0 -1 -1 -1 -1 -1 -2 -2 -2 -2 -2 -2 -2 -2 -2 -2 -2 -3 -3 -2 -2 -2 -2 -2 -2 -2 -2 -2
5 4 10 11 9 7 6 6 5 5 6 5 6 5 5 2 1 1 -0 -0 -1 -0 -1 -1 0 -0 -1 -1 -1 -2 -2 -2 -2 -2 -2 -2 -2 -2 -2 -2 -2 -2 -2 -2 -2 -2 -2 -2 -2
6 7 9 9 9 8 7 5 6 6 6 6 5 7 4 3 1 0 -0 -0 -1 -1 -1 -1 -1 -1 0 -0 -1 -1 -1 -2 -2 -2 -2 -2 -2 -2 -2 -2 -2 -2 -2 -2 -2 -2 -2 -2 -2
4 6 9 9 10 9 6 5 5 5 6 3 4 7 6 3 1 0 0 -0 -0 -1 -1 -1 -0 -1 -1 -1 0 -0 -1 -1 -1 -1 -1 -1 -1 -1 -1 -1 -2 -2 -2 -1 -2 -2 -2 -2 -1
3 9 10 9 9 8 5 6 5 4 5 4 4 4 3 2 1 1 1 1 1 0 -0 -1 -1 -1 -1 -1 -0 0 -0 -0 -0 -0 0 -0 -1 -1 -1 -1 -1 -2 -2 -1 -2 -2 -2 -2 -2
6 9 9 6 6 7 6 6 6 6 5 5 5 3 2 2 2 3 2 2 2 1 0 -0 -1 -1 -1 -1 -1 -1 -1 -1 -1 -1 -1 -1 -1 -1 -1 -0 -0 -1 -1 -1 -2 -1 -2 -1 -1
6 8 6 6 5 6 6 7 6 6 7 5 5 4 3 3 3 3 2 2 2 1 0 -0 -0 -1 -1 -1 -1 -1 -1 -1 -1 -2 -1 -1 -1 -1 -1 -1 -1 -1 -0 -1 -1 -1 -1 -1 -1
8 6 5 6 5 6 6 5 6 6 5 5 4 4 3 3 3 3 3 2 1 1 1 -0 -1 -1 -1 -1 -1 -1 -1 -1 -1 -1 -1 -1 -1 -1 -1 -1 -1 -2 -1 -1 -2 -1 -2 -1 -1
7 8 6 5 5 5 5 6 6 6 4 4 4 5 4 3 3 2 2 1 1 1 1 0 -0 -0 -1 -1 -1 -1 -1 -1 -1 -1 -1 -1 -1 -1 -1 -1 -1 -1 -1 -1 -1 -1 -1 -1 -1
6 7 7 5 6 6 7 6 6 5 4 4 4 4 3 3 3 2 2 2 2 1 1 0 -0 -0 -1 -0 -1 -1 -1 -1 -1 -1 -1 -1 -1 -1 -1 -1 -0 -0 -0 -1 -1 -1 -1 -1 -1
6 8 7 7 6 7 5 8 8 5 4 5 4 4 3 3 3 3 2 2 1 1 1 1 0 -0 -0 -0 -1 -1 -1 -1 -1 -1 -1 -1 -1 -1 -1 -1 -0 0 -0 -0 -1 -1 -1 -1 -1
9 8 11 9 7 6 7 11 8 5 5 5 4 4 4 3 3 2 2 1 1 1 1 0 0 -0 -0 -0 -0 -1 -1 -1 -1 -1 -1 -1 -1 -1 -1 -1 -0 -0 -0 -0 -0 -0 0 0 -0
9 12 11 9 6 7 8 10 7 6 6 5 5 4 4 3 3 2 1 1 1 1 1 1 0 0 0 -0 -0 -1 -1 -1 -1 -1 -1 -1 -1 -1 -1 -1 -0 -0 0 0 0 -0 0 1 0
13 12 11 10 8 8 9 9 7 6 5 5 5 4 4 4 3 2 2 1 1 1 1 1 0 0 0 0 0 0 -0 -0 -1 -1 -1 -1 -1 -1 -1 -1 -1 -0 0 0 0 0 -0 0 0
9 10 10 9 7 9 9 9 8 7 6 6 5 5 5 4 3 2 2 2 1 1 1 1 1 1 0 1 1 1 1 1 0 -0 -1 -1 -1 -1 -1 -0 -0 -1 0 0 -0 0 1 1 0
10 11 11 9 7 9 9 11 9 8 8 7 6 6 5 5 4 3 2 2 1 1 1 1 1 1 1 1 1 1 1 1 0 -0 -0 -1 -1 -1 -0 -0 -0 -0 0 0 0 0 1 1 0
10 11 11 10 9 8 10 13 11 9 9 7 6 5 5 5 4 4 4 3 2 2 1 1 1 1 1 0 0 0 0 0 1 1 1 -0 -0 -0 -1 -0 -0 -0 -0 1 0 0 1 2 1
12 8 9 10 11 14 10 17 12 11 10 9 8 7 6 5 4 4 3 3 3 2 1 1 1 1 1 0 1 1 2 3 1 1 1 1 1 1 1 1 0 1 0 1 0 0 1 1 2
10 8 9 10 11 12 12 15 14 11 12 10 8 7 7 5 5 4 4 3 2 1 1 1 1 1 1 1 1 1 2 1 1 1 1 1 1 1 1 1 1 1 1 1 0 0 1 1 1
7 9 10 10 11 17 13 13 16 13 11 10 8 7 6 6 5 4 3 3 2 1 1 1 1 1 1 1 1 1 2 2 2 2 2 1 1 1 1 1 1 1 1 2 1 0 0 1 1
9 11 17 18 18 17 12 14 15 11 9 9 9 7 6 5 5 4 4 3 3 2 1 1 1 1 1 1 1 1 1 1 2 2 2 2 1 1 1 1 1 1 1 1 1 1 1 1 1
11 11 14 19 17 15 12 17 14 10 8 7 7 7 5 5 5 5 4 4 3 2 2 2 2 2 1 1 1 1 1 1 1 1 1 1 1 1 1 1 1 1 1 1 1 1 1 2 2
11 14 9 13 14 16 15 13 11 10 9 8 8 7 6 6 5 6 5 4 4 4 3 2 2 2 1 1 1 1 1 1 1 1 1 1 1 1 1 1 1 1 1 1 1 1 1 1 2
9 8 15 14 19 19 17 16 16 12 11 9 8 7 6 6 6 6 5 5 4 3 3 3 2 3 3 2 1 2 1 1 1 1 1 1 1 1 1 1 1 1 1 1 1 1 1 2 2
11 12 11 11 13 17 18 17 11 11 10 10 8 7 6 6 6 5 5 4 4 3 3 4 4 4 3 3 3 2 2 1 1 1 1 1 1 1 1 1 2 2 2 1 1 2 2 2 3
9 10 11 14 15 13 14 17 10 9 9 8 8 7 7 6 5 5 4 4 4 4 3 3 3 3 3 4 4 4 3 2 1 1 1 1 1 1 1 1 2 2 2 2 2 2 2 3 3